Regional Weather Roundup
Issued by NWS

Home | Current Version | Previous Version | Text Only | Print | Product List | Glossary On
Versions: 1 2 3 4 5 6 7 8 9 10 11 12 13 14 15 16 17 18 19 20 21 22 23 24 25 26 27 28 29 30 31 32 33 34 35 36 37 38 39 40 41 42 43 44 45 46 47 48 49 50
000
ASUS46 KPQR 232310
RWROR

OREGON REGIONAL WEATHER ROUNDUP
NATIONAL WEATHER SERVICE PORTLAND OR
400 PM PDT FRI JUN 23 2017

NOTE: "FAIR" INDICATES FEW OR NO CLOUDS BELOW 12,000 FEET WITH
NO SIGNIFICANT WEATHER AND/OR OBSTRUCTIONS TO VISIBILITY.

ORZ001>013-240000-
NORTHWEST OREGON


CITY           SKY/WX    TMP DP  RH WIND       PRES   REMARKS
ASTORIA        LGT RAIN  75  53  46 NW17      30.09F
NEWPORT        SUNNY     70  54  56 N13G18    30.06S
PORTLAND       SUNNY     90  46  21 NW10      30.04F
VANCOUVER WA   SUNNY     89  50  26 NW14      30.05S
SCAPPOOSE      SUNNY     88  49  25 N10       30.06S
HILLSBORO      SUNNY     90  43  19 NE10      30.05F
AURORA         SUNNY     92  49  22 N15       30.04F
MCMINNVILLE    SUNNY     91  46  21 N16       30.04F
SALEM          SUNNY     93  47  20 N14G24    30.01F
CORVALLIS      SUNNY     93  48  21 N7        30.03F HX  90
EUGENE         SUNNY     88  51  28 N18G24    30.01S
$$

ORZ021-028-240000-
SOUTHWEST OREGON


CITY           SKY/WX    TMP DP  RH WIND       PRES   REMARKS
NORTH BEND     SUNNY     72  50  46 N22G29    29.98S
BROOKINGS      SUNNY     65  56  72 SE8       29.97S
ROSEBURG       SUNNY     92  48  22 N13       29.96F
SEXTON SUMMIT  SUNNY     85  47  26 VRB7      30.13S
GRANTS PASS    FAIR      99  45  15 W6        29.96F HX  94
MEDFORD        SUNNY    100  40  12 W8        29.92F HX  95
$$

ORZ014>016-041-240000-
COLUMBIA GORGE


CITY           SKY/WX    TMP DP  RH WIND       PRES   REMARKS
TROUTDALE      SUNNY     90  47  22 E9        30.04S
HOOD RIVER     SUNNY     86  41  20 E6        30.12S
THE DALLES     SUNNY     91  36  14 NE10      30.09S
$$

ORZ029>031-041-044-049-050-061>064-502-503-505>511-240000-
EASTERN OREGON


CITY           SKY/WX    TMP DP  RH WIND       PRES   REMARKS
MADRAS         SUNNY     84  28  13 N10       30.16F
REDMOND        SUNNY     85  22  10 N10G20    30.16F
BEND           SUNNY    N/A N/A N/A VRB7G14   30.19S
PRINEVILLE     SUNNY     84  28  13 SW10      30.17S
KLAMATH FALLS  SUNNY     87  36  16 VRB3      30.13F
LAKEVIEW       SUNNY     86  38  18 VRB6      30.19S
HERMISTON      SUNNY     89  35  14 NE8       30.11F
PENDLETON      SUNNY     85  37  18 N12       30.14F
JOHN DAY       SUNNY     83  32  16 CALM      30.19S
MEACHAM        SUNNY     74  35  24 VRB6      30.24F
LA GRANDE      SUNNY     81  32  17 N14       30.17S
BAKER CITY     SUNNY     79  35  20 NW13      30.19F
BURNS          SUNNY     82  30  15 VRB5      30.18F
ROME             N/A     86  25  11 VRB3      30.16F
ONTARIO        SUNNY     86  24  10 CALM      30.12F
$$



USA.gov is the U.S. government's official web portal to all federal, state and local government web resources and services.